Zurück zum Katalog

OPS 7033

VELA 11

LostMilitärHEO
NORAD 4368·PAYLOAD·🇺🇸 United States

Gestartet Apr 8, 1970 von Cape Canaveral Space Force Station

Loading…

Nächste Überflüge (nächste 24 Stunden)

TLE

VeraltetSource: Space-Track

Epoche: Jun 11, 2025, 21:50 UTC

1  4368U 70027B   25162.90992538 -.00000395  00000-0  00000+0 0  9995
2  4368  86.1941 359.2669 7824343  72.0060   0.7294  0.21504509 36870

Verfolge OPS 7033 in Echtzeit mit AllMySat

Download on the App Store